• Processing (Info)

  • MPEC 2019-A09 : 2014 QC442

    The following Minor Planet Electronic Circular may be linked-to from your own Web pages, but must not otherwise be redistributed electronically.

    A form allowing access to any MPEC is at the bottom of this page.


    Read MPEC 2019-A08 Read MPEC 2019-A10


    M.P.E.C. 2019-A09                                Issued 2019 Jan. 2, 03:48 UT
    
         The Minor Planet Electronic Circulars contain information on unusual
             minor planets and routine data on comets.  They are published
        on behalf of Division F of the International Astronomical Union by the
              Minor Planet Center, Smithsonian Astrophysical Observatory,
                              Cambridge, MA 02138, U.S.A.
    
                 Prepared using the Tamkin Foundation Computer Network
    
                                  MPC@CFA.HARVARD.EDU
                URL https://www.minorplanetcenter.net/    ISSN 1523-6714
    
                                      2014 QC442
    
    Additional Observations:
         K14Qi2C  C2013 10 02.39863 01 35 39.997+01 04 17.62         22.5 GVEA009F51
         K14Qi2C  C2013 10 02.41345 01 35 39.937+01 04 17.39         22.2 GVEA009F51
         K14Qi2C  C2013 10 02.42832 01 35 39.889+01 04 16.75         22.6 GVEA009F51
         K14Qi2C  C2013 10 02.44324 01 35 39.825+01 04 16.64         22.7 GVEA009F51
         K14Qi2C  C2013 10 27.33884 01 33 51.520+00 55 18.94         23.2 GVEA009F51
         K14Qi2C  C2013 10 27.35430 01 33 51.436+00 55 18.79         22.1 GVEA009F51
         K14Qi2C  C2013 10 27.36990 01 33 51.362+00 55 18.30         22.4 GVEA009F51
         K14Qi2C  C2013 10 27.38552 01 33 51.305+00 55 18.20         22.2 GVEA009F51
         K14Qi2C KC2014 10 13.43309 01 39 07.751+01 51 07.71         22.8 GVEA009F51
         K14Qi2C  C2014 11 20.37113 01 36 27.131+01 40 12.41         22.7 GVEA009F51
         K14Qi2C  C2014 11 20.38399 01 36 27.079+01 40 12.50         22.0 GVEA009F51
         K14Qi2C  C2014 11 20.39687 01 36 27.037+01 40 12.42         21.7 GVEA009F51
         K14Qi2C  C2014 11 20.40987 01 36 26.970+01 40 11.97         23.6 GVEA009F51
         K14Qi2C  C2014 11 22.31018 01 36 20.108+01 39 53.40         23.4 GVEA009F51
         K14Qi2C  C2014 11 22.32311 01 36 20.045+01 39 53.27         22.2 GVEA009F51
         K14Qi2C KC2015 01 10.25657 01 34 48.247+01 42 39.51         22.9 GVEA009F51
         K14Qi2C  C2015 08 12.55553 01 46 41.748+03 03 39.20         23.1 GVEA009F51
         K14Qi2C  C2015 08 12.56664 01 46 41.745+03 03 38.91         22.7 GVEA009F51
         K14Qi2C  C2015 08 12.57781 01 46 41.735+03 03 38.93         23.2 GVEA009F51
         K14Qi2C  C2015 08 12.58906 01 46 41.701+03 03 38.65         22.3 GVEA009F51
         K14Qi2C  C2015 09 11.51249 01 45 34.522+02 55 02.97         23.1 GVEA009F51
         K14Qi2C  C2015 09 11.52420 01 45 34.489+02 55 02.60         22.9 GVEA009F51
         K14Qi2C  C2015 09 11.53578 01 45 34.466+02 55 02.38         22.4 GVEA009F51
         K14Qi2C  C2015 09 11.54712 01 45 34.424+02 55 02.06         22.8 GVEA009F51
         K14Qi2C  C2015 09 12.48607 01 45 31.325+02 54 42.18         22.3 GVEA009F51
         K14Qi2C  C2015 09 12.49787 01 45 31.279+02 54 41.94         22.4 GVEA009F51
         K14Qi2C  C2015 09 12.50965 01 45 31.248+02 54 41.72         22.6 GVEA009F51
         K14Qi2C  C2015 09 12.52144 01 45 31.205+02 54 41.34         22.4 GVEA009F51
         K14Qi2C  C2015 10 16.38551 01 43 14.589+02 41 59.22         22.4 GVEA009F51
         K14Qi2C  C2015 10 18.40741 01 43 05.539+02 41 15.31         22.1 GVEA009F51
         K14Qi2C  C2015 10 18.41856 01 43 05.480+02 41 15.28         22.3 GVEA009F51
         K14Qi2C  C2015 10 18.42976 01 43 05.433+02 41 14.83         22.0 GVEA009F51
         K14Qi2C  C2015 10 18.44097 01 43 05.373+02 41 14.80         22.4 GVEA009F51
         K14Qi2C KC2016 08 27.51725 01 50 37.778+03 52 03.66         22.7 GVEA009F51
         K14Qi2C KC2016 09 26.53430 01 49 00.954+03 41 54.65         23.0 GVEA009F51
         K14Qi2C KC2016 09 30.48444 01 48 44.764+03 40 25.41         18.8 GVEA009F51
         K14Qi2C KC2016 09 30.51821 01 48 44.638+03 40 24.36         18.8 GVEA009F51
         K14Qi2C KC2016 12 28.27669 01 43 23.522+03 22 53.92         22.0 GVEA009F51
         K14Qi2C  C2017 08 31.56112 01 54 57.480+04 44 15.33         22.4 GVEA009F51
         K14Qi2C  C2017 08 31.57389 01 54 57.437+04 44 15.22         22.9 GVEA009F51
         K14Qi2C  C2017 08 31.58664 01 54 57.394+04 44 15.09         22.7 GVEA009F51
         K14Qi2C  C2017 08 31.59947 01 54 57.369+04 44 14.79         22.7 GVEA009F51
         K14Qi2C  C2017 09 17.48244 01 54 06.021+04 38 51.63         22.1 GVEA009F51
         K14Qi2C  C2017 09 17.49449 01 54 05.960+04 38 51.40         22.5 GVEA009F51
         K14Qi2C  C2017 09 17.50660 01 54 05.910+04 38 51.24         22.3 GVEA009F51
         K14Qi2C  C2017 09 17.51872 01 54 05.867+04 38 50.88         22.2 GVEA009F51
         K14Qi2C  C2017 09 24.42058 01 53 40.024+04 36 22.96         22.3 GVEA009F51
         K14Qi2C  C2017 09 24.43318 01 53 39.974+04 36 22.76         22.6 GVEA009F51
         K14Qi2C  C2017 09 24.44582 01 53 39.931+04 36 22.61         22.9 GVEA009F51
         K14Qi2C  C2017 09 24.45851 01 53 39.872+04 36 22.22         22.3 GVEA009F51
         K14Qi2C  C2017 10 11.41492 01 52 28.121+04 30 04.81         22.1 GVEA009F51
         K14Qi2C  C2017 10 11.42670 01 52 28.075+04 30 04.51         22.0 GVEA009F51
         K14Qi2C  C2017 10 11.43850 01 52 28.033+04 30 04.86         22.3 GVEA009F51
         K14Qi2C  C2017 10 11.45033 01 52 27.967+04 30 04.38         22.5 GVEA009F51
         K14Qi2C KC2017 10 19.39449 01 51 51.886+04 27 11.15         22.0 GVEA009F51
         K14Qi2C  C2017 11 13.33188 01 49 59.850+04 19 25.89         22.7 GVEA009F51
         K14Qi2C  C2017 11 13.34315 01 49 59.808+04 19 25.78         22.8 GVEA009F51
         K14Qi2C  C2017 11 13.34510 01 49 59.779+04 19 25.70         22.3 GVEA009F51
         K14Qi2C  C2017 11 13.35635 01 49 59.737+04 19 25.42         22.8 GVEA009F51
         K14Qi2C  C2017 11 13.35831 01 49 59.723+04 19 25.72         22.2 GVEA009F51
         K14Qi2C  C2017 11 13.36959 01 49 59.680+04 19 25.41         23.1 GVEA009F51
         K14Qi2C  C2017 11 13.37156 01 49 59.663+04 19 25.18         22.2 GVEA009F51
         K14Qi2C KC2017 11 20.34449 01 49 31.144+04 17 49.95         21.9 GVEA009F51
         K14Qi2C  C2018 02 03.23448 01 48 00.298+04 25 57.94         22.6 GVEA009F51
         K14Qi2C  C2018 02 03.24673 01 48 00.313+04 25 58.30         22.5 GVEA009F51
         K14Qi2C  C2018 02 03.25897 01 48 00.347+04 25 58.29         22.5 GVEA009F51
         K14Qi2C  C2018 02 03.27121 01 48 00.359+04 25 58.90         23.3 GVEA009F51
    
    Observer details:
    F51 Pan-STARRS 1, Haleakala.  Observers J. Bulger, K. Chambers, B. Gibson,
        T. Goggia, T. Lowe, E. Magnier, N. Primak, A. Schultz, J. Thiel,
        S. Watters, M. Willman.  Measurers S. Chastel, M. Huber, R. Jedicke,
        R. Wainscoat, R. Weryk.  1.8-m Ritchey-Chretien + CCD.
    
    Orbital elements:
    2014 QC442
    Epoch 2019 Apr. 27.0 TT = JDT 2458600.5                 MPC
    M 338.83316              (2000.0)            P               Q
    n   0.00173298     Peri.   45.15391     -0.00294336     -0.97151144
    a  68.6448040      Node    46.62822     +0.80069332     -0.14425443
    e   0.4972780      Incl.   19.02623     +0.59906723     +0.18803241
    P 569              H    6.3           G   0.15           U   1
    Residuals in seconds of arc
    131002 F51  0.2-  0.1+    150108 F51  0.0   0.0     170831 F51  0.2-  0.1+
    131002 F51  0.2-  0.2+    150108 F51  0.0   0.0     170831 F51  0.1-  0.0
    131002 F51  0.0   0.1-    150108 F51  0.1+  0.2+    170917 F51  0.3+  0.0
    131002 F51  0.0   0.2+    150108 F51  0.3-  0.0     170917 F51  0.1+  0.0
    131027 F51  0.2+  0.0     150110 F51  0.1+  0.0     170917 F51  0.0   0.1+
    131027 F51  0.1-  0.2+    150812 F51  0.0   0.1-    170917 F51  0.0   0.0
    131027 F51  0.1-  0.0     150812 F51  0.2+  0.3-    170924 F51  0.0   0.0
    131027 F51  0.0   0.2+    150812 F51  0.2+  0.1-    170924 F51  0.0   0.1+
    140825 F51  0.2+  0.1+    150812 F51  0.1-  0.3-    170924 F51  0.1+  0.2+
    140825 F51  0.0   0.2-    150911 F51  0.1-  0.1+    170924 F51  0.0   0.1+
    140825 F51  0.1-  0.0     150911 F51  0.0   0.0     171011 F51  0.2-  0.3-
    140827 F51  0.1+  0.1-    150911 F51  0.2+  0.0     171011 F51  0.1-  0.4-
    140827 F51  0.2+  0.1-    150911 F51  0.2+  0.0     171011 F51  0.1+  0.3+
    140827 F51  0.1+  0.0     150912 F51  0.1-  0.0     171011 F51  0.1-  0.0
    140827 F51  0.2+  0.2-    150912 F51  0.2-  0.1+    171019 F51  0.2-  0.2+
    140919 F51  0.1-  0.1+    150912 F51  0.0   0.1+    171113 F51  0.1+  0.0
    140919 F51  0.1-  0.3+    150912 F51  0.1-  0.0     171113 F51  0.2+  0.0
    140919 F51  0.1-  0.1+    151016 F51  0.2-  0.0     171113 F51  0.1-  0.0
    140919 F51  0.0   0.0     151018 F51  0.2+  0.0     171113 F51  0.0   0.1-
    141013 F51  0.0   0.1-    151018 F51  0.0   0.2+    171113 F51  0.1-  0.2+
    141120 F51  0.1+  0.2-    151018 F51  0.1+  0.0     171113 F51  0.0   0.1+
    141120 F51  0.0   0.0     151018 F51  0.0   0.2+    171113 F51  0.1-  0.1-
    141120 F51  0.1+  0.0     160827 F51  0.2-  0.1-    171120 F51  0.1+  0.0
    141120 F51  0.1-  0.3-    160926 F51  0.2-  0.0     180203 F51  0.1+  0.1+
    141122 F51  0.1+  0.0     160930 F51  0.3-  0.1+    180203 F51  0.0   0.1+
    141122 F51  0.1-  0.1-    160930 F51  0.0   0.2-    180203 F51  0.1+  0.2-
    141218 F51  0.1+  0.2-    161228 F51  0.3+  0.1-    180203 F51  0.0   0.1+
    141218 F51  0.3-  0.1-    170831 F51  0.1+  0.1-
    141218 F51  0.1-  0.2+    170831 F51  0.0   0.0
    
    Ephemeris:
    2014 QC442               a,e,i = 68.64, 0.50, 19                 q = 34.509
    Date    TT    R. A. (2000) Decl.     Delta      r     Elong.  Phase     V
    2018 12 03    01 53 17.9 +05 10 10  41.6007 42.3307   137.3     0.9    22.7
    ...
    2018 12 18    01 52 35.1 +05 09 12  41.7842 42.3147   122.1     1.1    22.7
    ...
    2018 12 26    01 52 19.3 +05 09 30  41.8980 42.3061   113.9     1.2    22.7
    ...
    2019 01 01    01 52 11.1 +05 10 05  41.9887 42.2997   107.8     1.3    22.7
    2019 01 02    01 52 10.0 +05 10 13  42.0042 42.2987   106.8     1.3    22.7
    2019 01 03    01 52 09.1 +05 10 21  42.0198 42.2976   105.8     1.3    22.7
    ...
    2019 01 09    01 52 05.1 +05 11 23  42.1148 42.2912    99.7     1.3    22.7
    ...
    2019 01 17    01 52 05.1 +05 13 15  42.2441 42.2827    91.6     1.3    22.7
    ...
    2019 02 01    01 52 20.9 +05 18 13  42.4858 42.2667    76.5     1.3    22.8
    
    A. U. Tomatic                (C) Copyright 2019 MPC           M.P.E.C. 2019-A09
    

    Read MPEC 2019-A08 Read MPEC 2019-A10


    MPEC number:

    Enter an MPEC number in one of the following forms:

    • 1997-B01 (the full form)
    • J97B01 (the packed version of the full form)
    • B01 (the abbreviated form)